Yankton, SD

3:01 AM CST on November 21, 2019 (GMT -0600)
Gurney Municipal

Weather History for KYKN - October, 2019

Change the Weather History Date:

Sunday, October 20, 2019

  Actual Average Record
Temperature  
Mean Temperature 50 °F -  
Max Temperature 61 °F 60 °F 90 °F (1958)
Min Temperature 39 °F 34 °F 16 °F (1960)
Degree Days  
Heating Degree Days 15    
Moisture  
Dew Point 41 °F    
Average Humidity 75    
Maximum Humidity 93    
Minimum Humidity 46    
Precipitation  
Precipitation 0.12 in - - ()
Sea Level Pressure  
Sea Level Pressure 29.68 in    
Wind  
Wind Speed 9 mph (East)    
Max Wind Speed 25 mph    
Max Gust Speed 33 mph    
Visibility 10 miles    
Events Rain    
Averages and records for this station are not official NWS values.
T = Trace of Precipitation, MM = Missing Value Source: NWS Daily Summary

Daily Weather History Graph

Daily Weather History Graph

Search for Another Location

Airport or City:

Astronomy

Oct. 20, 2019 Rise Set
Actual Time 7:48 AM CDT 6:39 PM CDT
Civil Twilight 7:19 AM CDT 7:08 PM CDT
Nautical Twilight 6:47 AM CDT 7:40 PM CDT
Astronomical Twilight 6:14 AM CDT 8:13 PM CDT
Moon 11:43 PM CDT (10/20) 2:23 PM CDT (10/20)
Length of Visible Light 11h 48m
Length of Day
10h 50m
Waning Gibbous, 59% of the Moon is Illuminated
Oct 20
Waning Gibbous
Oct 21
Last Quarter
Oct 27
New
Nov 4
First Quarter
Nov 12
Full

Hourly Weather History & Observations

Time (CDT) Temp. Windchill Dew Point Humidity Pressure Visibility Wind Dir Wind Speed Gust Speed Precip Events Conditions
12:56 AM 44.1 °F 40.1 °F 37.0 °F 76% 29.77 in 10.0 mi East 6.9 mph - N/A   Clear
1:56 AM 41.0 °F 37.1 °F 37.0 °F 86% 29.76 in 10.0 mi East 5.8 mph - N/A   Clear
2:56 AM 39.9 °F 35.1 °F 36.0 °F 86% 29.76 in 10.0 mi East 6.9 mph - N/A   Clear
3:56 AM 41.0 °F 37.1 °F 34.0 °F 76% 29.75 in 10.0 mi East 5.8 mph - N/A   Clear
4:56 AM 42.1 °F 37.1 °F 35.1 °F 76% 29.75 in 10.0 mi East 8.1 mph - N/A   Clear
5:56 AM 41.0 °F 35.8 °F 35.1 °F 79% 29.75 in 10.0 mi East 8.1 mph - N/A   Clear
6:56 AM 41.0 °F 36.4 °F 36.0 °F 82% 29.75 in 10.0 mi East 6.9 mph - N/A   Clear
7:56 AM 42.1 °F 37.1 °F 37.0 °F 82% 29.75 in 10.0 mi East 8.1 mph - N/A   Scattered Clouds
8:56 AM 44.1 °F 40.1 °F 37.9 °F 79% 29.75 in 10.0 mi ENE 6.9 mph - N/A   Clear
9:56 AM 48.9 °F - 39.9 °F 71% 29.73 in 10.0 mi ESE 11.5 mph - N/A   Mostly Cloudy
10:56 AM 48.9 °F - 42.1 °F 77% 29.74 in 10.0 mi ENE 9.2 mph - N/A   Overcast
11:56 AM 53.1 °F - 43.0 °F 69% 29.76 in 10.0 mi Variable 3.5 mph - N/A   Overcast
12:56 PM 54.0 °F - 46.0 °F 75% 29.74 in 10.0 mi East 5.8 mph - N/A   Mostly Cloudy
1:56 PM 57.9 °F - 46.9 °F 67% 29.70 in 10.0 mi ESE 16.1 mph 26.5 mph N/A   Overcast
2:56 PM 57.9 °F - 45.0 °F 62% 29.63 in 10.0 mi East 13.8 mph - N/A   Overcast
3:56 PM 60.1 °F - 45.0 °F 57% 29.62 in 10.0 mi ESE 15.0 mph 28.8 mph N/A   Overcast
4:56 PM 61.0 °F - 41.0 °F 48% 29.60 in 10.0 mi ESE 19.6 mph 31.1 mph N/A   Overcast
5:56 PM 60.1 °F - 42.1 °F 51% 29.58 in 10.0 mi ESE 16.1 mph 23.0 mph N/A   Overcast
6:56 PM 60.1 °F - 39.0 °F 46% 29.55 in 10.0 mi ESE 25.3 mph 33.4 mph N/A   Overcast
7:46 PM 53.6 °F - 48.2 °F 82% 29.57 in 9.0 mi SSW 16.1 mph 27.6 mph 0.00 in Rain Rain
7:56 PM 53.1 °F - 48.9 °F 86% 29.63 in 10.0 mi SSW 15.0 mph - 0.01 in Rain Light Rain
8:56 PM 52.0 °F - 48.0 °F 86% 29.61 in 10.0 mi ESE 9.2 mph - 0.11 in   Mostly Cloudy
9:56 PM 50.0 °F - 46.0 °F 86% 29.58 in 10.0 mi East 6.9 mph - 0.00 in   Partly Cloudy
10:56 PM 48.9 °F - 45.0 °F 86% 29.56 in 10.0 mi East 6.9 mph - N/A   Clear
11:56 PM 46.0 °F 41.9 °F 44.1 °F 93% 29.53 in 10.0 mi East 8.1 mph - N/A   Clear